Location: ??
(35.5672°N, 139.6509°E)
Time: 09:35:43
(UTC+00:00)

Aureole 1 Rocket - Pass Details

Date: 03 August 2024
Orbit: 376 x 1249 km, 73.9° (Epoch: 13 September)

Event Time Altitude Azimuth Distance (km) Brightness Sun altitude
Rises 16:38:00 0° 340° (NNW) 4,100 7.8 -31.1°
Reaches altitude 10° 16:40:56 10° 340° (NNW) 3,050 7.0 -30.8°
Enters shadow 16:47:39 74° 301° (WNW) 1,048 4.0 -30.0°
